Woodinville, Washington, United States (98072)
Lat: 47.75N, Lon: 122.16W
Wx Zone: WAZ505
Local Info
Past Weather Observations for Yesterday

NOTE: This archive is for the closest National Weather Service station to Woodinville. Information may differ from the station used for current weather conditions.

Time Weather Temperature Dewpoint Humidity Pressure Winds Precip Visibility
23:53
Overcast
45°F / 7°C 41°F / 5°C 87% 29.86 in
(1011 mb)
S 10.4 mph
(S 17 kph)
0.01 in
(0.25 mm)
10SM
23:15
Overcast
45°F / 7°C 39°F / 4°C 81% 29.86 in
(1011 mb)
S 12.7 mph
(S 20 kph)
0.00 in
(0.00 mm)
10SM
23:10
Overcast
45°F / 7°C 39°F / 4°C 81% 29.86 in
(1011 mb)
S 15 mph
(S 24 kph)
0.00 in
(0.00 mm)
10SM
22:53
Overcast
Light Rain
45°F / 7°C 41°F / 5°C 87% 29.86 in
(1011 mb)
S 18.4 mph
(S 30 kph)
0.04 in
(1.02 mm)
10SM
22:23
Overcast
Light Rain
45°F / 7°C 41°F / 5°C 87% 29.86 in
(1011 mb)
S 11.5 mph
(S 19 kph)
0.03 in
(0.76 mm)
9SM
22:14
Overcast
Light Rain
45°F / 7°C 41°F / 5°C 87% 29.86 in
(1011 mb)
S 11.5 mph
(S 19 kph)
0.02 in
(0.51 mm)
8SM
21:53
Overcast
Light Rain
45°F / 7°C 41°F / 5°C 87% 29.86 in
(1011 mb)
S 16.1 mph
(S 26 kph)
0.02 in
(0.51 mm)
10SM
21:46
Overcast
Light Rain
45°F / 7°C 41°F / 5°C 87% 29.86 in
(1011 mb)
S 18.4 mph
(S 30 kph)
0.01 in
(0.25 mm)
10SM
21:09
Overcast
Light Rain
45°F / 7°C 41°F / 5°C 87% 29.86 in
(1011 mb)
SSE 13.8 mph
(SSE 22 kph)
0.00 in
(0.00 mm)
10SM
20:53
Overcast
Light Rain
45°F / 7°C 41°F / 5°C 87% 29.86 in
(1011 mb)
SSE 15 mph
(SSE 24 kph)
0.03 in
(0.76 mm)
10SM
20:36
Overcast
Light Rain
45°F / 7°C 41°F / 5°C 87% 29.86 in
(1011 mb)
SSE 12.7 mph
(SSE 20 kph)
0.03 in
(0.76 mm)
10SM
19:53
Overcast
Light Rain
45°F / 7°C 41°F / 5°C 87% 29.89 in
(1012 mb)
SSE 13.8 mph
(SSE 22 kph)
0.03 in
(0.76 mm)
10SM
18:53
Overcast
Light Rain
46°F / 8°C 39°F / 4°C 76% 29.86 in
(1011 mb)
S 17.3 mph
(S 28 kph)
0.00 in
(0.00 mm)
10SM
17:53
Partly Cloudy
48°F / 9°C 37°F / 3°C 66% 29.86 in
(1011 mb)
S 10.4 mph
(S 17 kph)
- 10SM
16:53
Partly Cloudy
52°F / 11°C 37°F / 3°C 58% 29.86 in
(1011 mb)
S 18.4 mph
(S 30 kph)
- 10SM
15:53
Overcast
54°F / 12°C 36°F / 2°C 51% 29.86 in
(1011 mb)
SSE 16.1 mph
(SSE 26 kph)
0.01 in
(0.25 mm)
10SM
14:53
Mostly Cloudy
52°F / 11°C 36°F / 2°C 54% 29.89 in
(1012 mb)
SSE 13.8 mph
(SSE 22 kph)
- 10SM
13:53
Mostly Cloudy
54°F / 12°C 36°F / 2°C 51% 29.89 in
(1012 mb)
SSE 9.2 mph
(SSE 15 kph)
- 10SM
12:53
Partly Cloudy
50°F / 10°C 36°F / 2°C 58% 29.89 in
(1012 mb)
Variable 3.5 mph
(Variable 6 kph)
- 10SM
12:00
Mostly Cloudy
48°F / 9°C 36°F / 2°C 62% 29.89 in
(1012 mb)
S 10.4 mph
(S 17 kph)
- 10SM
11:53
Overcast
48°F / 9°C 36°F / 2°C 62% 29.89 in
(1012 mb)
S 9.2 mph
(S 15 kph)
- 10SM
10:53
Overcast
46°F / 8°C 37°F / 3°C 71% 29.89 in
(1012 mb)
SSE 12.7 mph
(SSE 20 kph)
- 10SM
10:28
Overcast
45°F / 7°C 37°F / 3°C 76% 29.89 in
(1012 mb)
SSE 10.4 mph
(SSE 17 kph)
- 10SM
09:53
Overcast
45°F / 7°C 37°F / 3°C 76% 29.89 in
(1012 mb)
S 12.7 mph
(S 20 kph)
- 10SM
08:53
Overcast
43°F / 6°C 37°F / 3°C 81% 29.89 in
(1012 mb)
SSE 10.4 mph
(SSE 17 kph)
- 10SM
08:35
Mostly Cloudy
43°F / 6°C 37°F / 3°C 81% 29.89 in
(1012 mb)
SSE 16.1 mph
(SSE 26 kph)
- 10SM
07:53
Mostly Cloudy
43°F / 6°C 37°F / 3°C 81% 29.89 in
(1012 mb)
SSE 10.4 mph
(SSE 17 kph)
- 10SM
07:09
Overcast
43°F / 6°C 36°F / 2°C 76% 29.89 in
(1012 mb)
SSE 6.9 mph
(SSE 11 kph)
- 10SM
06:53
Overcast
45°F / 7°C 36°F / 2°C 71% 29.89 in
(1012 mb)
ESE 3.5 mph
(ESE 6 kph)
0.00 in
(0.00 mm)
10SM
05:53
Overcast
Light Rain
45°F / 7°C 36°F / 2°C 71% 29.86 in
(1011 mb)
SSW 5.8 mph
(SSW 9 kph)
0.00 in
(0.00 mm)
10SM
05:31
Overcast
Light Rain
43°F / 6°C 36°F / 2°C 76% 29.86 in
(1011 mb)
NNW 3.5 mph
(NNW 6 kph)
0.00 in
(0.00 mm)
10SM
05:23
Overcast
Light Rain
43°F / 6°C 37°F / 3°C 81% 29.86 in
(1011 mb)
NW 3.5 mph
(NW 6 kph)
0.00 in
(0.00 mm)
10SM
05:11
Overcast
Light Rain
43°F / 6°C 36°F / 2°C 76% 29.86 in
(1011 mb)
NNW 4.6 mph
(NNW 7 kph)
0.00 in
(0.00 mm)
10SM
05:02
Overcast
Light Rain
43°F / 6°C 34°F / 1°C 71% 29.86 in
(1011 mb)
NW 5.8 mph
(NW 9 kph)
0.00 in
(0.00 mm)
10SM
04:53
Overcast
Light Rain
43°F / 6°C 34°F / 1°C 71% 29.86 in
(1011 mb)
NW 12.7 mph
(NW 20 kph)
0.02 in
(0.51 mm)
10SM
04:13
Overcast
Light Rain
43°F / 6°C 36°F / 2°C 76% 29.83 in
(1010 mb)
NNW 8.1 mph
(NNW 13 kph)
0.00 in
(0.00 mm)
9SM
03:53
Overcast
Light Rain
43°F / 6°C 36°F / 2°C 76% 29.83 in
(1010 mb)
N 5.8 mph
(N 9 kph)
0.03 in
(0.76 mm)
10SM
03:22
Overcast
Light Rain
43°F / 6°C 36°F / 2°C 76% 29.83 in
(1010 mb)
NNW 9.2 mph
(NNW 15 kph)
0.01 in
(0.25 mm)
9SM
02:53
Overcast
Light Rain
43°F / 6°C 36°F / 2°C 76% 29.83 in
(1010 mb)
NNW 6.9 mph
(NNW 11 kph)
0.02 in
(0.51 mm)
10SM
02:29
Overcast
Light Rain
43°F / 6°C 37°F / 3°C 81% 29.83 in
(1010 mb)
Calm 0.02 in
(0.51 mm)
10SM
01:53
Overcast
Light Rain
43°F / 6°C 37°F / 3°C 81% 29.83 in
(1010 mb)
NW 9.2 mph
(NW 15 kph)
0.06 in
(1.52 mm)
5SM
00:53
Overcast
Light Rain
43°F / 6°C 39°F / 4°C 87% 29.83 in
(1010 mb)
NW 8.1 mph
(NW 13 kph)
0.04 in
(1.02 mm)
7SM
Time Weather Temperature Dewpoint Humidity Pressure Winds Precip Visibility


Weather for websites

WeatherForYou.com, LLC is not responsible for any damages or problems caused by this service. Current weather conditions are obtained from the closest station including government and personal stations which may have varying degrees of accuracy. Weather forecasts are derived from the NOAA NDFD. Like all things, this site belongs to Jesus Christ... He just trusts me to maintain it. If you have any questions or comments email webmaster@weatherforyou.com

Copyright © 2014, WeatherForYou.com LLC. All rights reserved.